Hartford, CT

5:28 PM EDT on October 17, 2017 (GMT -0400)
Hartford-brainard

Weather History for KHFD - January, 2014

Change the Weather History Date:

Friday, January 10, 2014

  Actual Average Record
Temperature  
Mean Temperature 26 °F -  
Max Temperature 35 °F 33 °F 61 °F (2016)
Min Temperature 17 °F 16 °F -8 °F (1942)
Degree Days  
Heating Degree Days 39    
Moisture  
Dew Point 25 °F    
Average Humidity 87    
Maximum Humidity 96    
Minimum Humidity 78    
Precipitation  
Precipitation 0.07 in - - ()
Sea Level Pressure  
Sea Level Pressure 30.44 in    
Wind  
Wind Speed 0 mph (SSE)    
Max Wind Speed 4 mph    
Max Gust Speed -    
Visibility 3 miles    
Events Fog , Rain , Snow    
Averages and records for this station are not official NWS values.
T = Trace of Precipitation, MM = Missing Value Source: NWS Daily Summary

Daily Weather History Graph

Daily Weather History Graph

Search for Another Location

Airport or City:

Trip Planner

Search our weather history database for the weather conditions in past years. The results will help you decide how hot, cold, wet, or windy it might be!

Date:

Astronomy

Jan. 10, 2014 Rise Set
Actual Time 7:17 AM EST 4:39 PM EST
Civil Twilight 6:46 AM EST 5:10 PM EST
Nautical Twilight 6:11 AM EST 5:45 PM EST
Astronomical Twilight 5:38 AM EST 6:18 PM EST
Moon 12:42 PM EST (1/10) 2:20 AM EST (1/10)
Length of Visible Light 10h 24m
Length of Day
9h 22m
Waxing Gibbous, 75% of the Moon is Illuminated
Jan 10
Waxing Gibbous
Jan 15
Full
Jan 24
Last Quarter
Jan 30
New
Feb 6
First Quarter

Hourly Weather History & Observations

Time (EST) Temp. Windchill Dew Point Humidity Pressure Visibility Wind Dir Wind Speed Gust Speed Precip Events Conditions
12:53 AM 17.1 °F - 12.0 °F 81% 30.60 in 8.0 mi Calm Calm - N/A   Clear
1:53 AM 18.0 °F - 12.9 °F 81% 30.58 in 7.0 mi Calm Calm - N/A   Clear
2:53 AM 19.9 °F - 14.0 °F 78% 30.60 in 8.0 mi Calm Calm - N/A   Overcast
3:53 AM 21.0 °F - 15.1 °F 78% 30.58 in 8.0 mi Calm Calm - N/A   Overcast
4:53 AM 21.9 °F 17.2 °F 16.0 °F 78% 30.55 in 6.0 mi SE 3.5 mph - 0.00 in   Haze
5:16 AM 23.0 °F - 17.1 °F 78% 30.54 in 2.5 mi Calm Calm - 0.00 in Snow Light Snow
5:26 AM 23.0 °F - 17.1 °F 78% 30.54 in 1.0 mi Calm Calm - 0.00 in Snow Light Snow
5:33 AM 23.0 °F 18.4 °F 18.0 °F 81% 30.53 in 0.5 mi South 3.5 mph - 0.01 in Snow Snow
5:42 AM 23.0 °F - 19.0 °F 85% 30.52 in 0.5 mi Calm Calm - 0.02 in Fog , Snow Snow
5:53 AM 23.0 °F - 19.9 °F 88% 30.53 in 0.5 mi Calm Calm - 0.02 in Fog , Snow Snow
6:15 AM 23.0 °F - 19.9 °F 88% 30.52 in 1.0 mi Calm Calm - 0.02 in Snow Light Snow
6:40 AM 24.1 °F - 21.0 °F 88% 30.51 in 2.5 mi Calm Calm - 0.02 in Snow Light Snow
6:43 AM 24.1 °F - 21.0 °F 88% 30.51 in 3.0 mi Calm Calm - 0.02 in Snow Light Snow
6:53 AM 24.1 °F - 21.0 °F 88% 30.51 in 3.0 mi Calm Calm - 0.02 in Snow Light Snow
7:50 AM 24.8 °F - 21.2 °F 86% 30.51 in 5.0 mi Calm Calm - 0.00 in   Overcast
7:53 AM 25.0 °F - 21.0 °F 85% 30.51 in 5.0 mi Calm Calm - 0.00 in   Overcast
8:15 AM 25.0 °F - 21.9 °F 88% 30.51 in 4.0 mi Calm Calm - N/A   Overcast
8:53 AM 26.1 °F - 21.9 °F 84% 30.51 in 4.0 mi Calm Calm - N/A   Overcast
9:21 AM 26.1 °F 21.9 °F 23.0 °F 88% 30.50 in 2.5 mi SSE 3.5 mph - 0.00 in Snow Light Snow
9:33 AM 27.0 °F - 23.0 °F 85% 30.51 in 3.0 mi Calm Calm - 0.00 in   Overcast
9:45 AM 27.0 °F - 23.0 °F 85% 30.51 in 2.0 mi Calm Calm - 0.00 in Snow Light Snow
9:53 AM 27.0 °F - 23.0 °F 85% 30.52 in 3.0 mi Calm Calm - 0.00 in   Overcast
10:04 AM 27.0 °F - 23.0 °F 85% 30.51 in 2.5 mi Calm Calm - N/A   Overcast
10:14 AM 27.0 °F - 23.0 °F 85% 30.50 in 3.0 mi Calm Calm - N/A   Overcast
10:53 AM 28.0 °F - 24.1 °F 85% 30.48 in 4.0 mi Calm Calm - N/A   Overcast
11:35 AM 28.9 °F - 25.0 °F 85% 30.45 in 1.8 mi Calm Calm - 0.00 in Snow Light Snow
11:51 AM 28.4 °F - 24.8 °F 86% 30.44 in 1.5 mi Calm Calm - 0.00 in Snow Light Snow
11:53 AM 28.9 °F - 25.0 °F 85% 30.44 in 1.5 mi Calm Calm - 0.00 in Snow Light Snow
12:06 PM 30.0 °F - 26.1 °F 85% 30.44 in 1.8 mi Calm Calm - 0.01 in Snow Light Snow
12:17 PM 30.0 °F - 26.1 °F 85% 30.43 in 1.0 mi Calm Calm - 0.01 in Snow Light Snow
12:29 PM 28.9 °F - 26.1 °F 89% 30.42 in 0.8 mi Calm Calm - 0.01 in Snow Light Snow
12:50 PM 30.2 °F - 26.6 °F 86% 30.41 in 0.8 mi Calm Calm - 0.02 in Snow Light Snow
12:53 PM 30.0 °F - 27.0 °F 88% 30.41 in 1.0 mi Calm Calm - 0.02 in Snow Light Snow
1:21 PM 30.9 °F - 28.0 °F 89% 30.40 in 2.0 mi Calm Calm - 0.00 in   Overcast
1:51 PM 32.0 °F - 28.4 °F 87% 30.39 in 2.5 mi Calm Calm - 0.00 in   Overcast
1:53 PM 32.0 °F - 28.0 °F 85% 30.39 in 2.5 mi Calm Calm - 0.00 in   Overcast
2:41 PM 32.0 °F - 28.9 °F 88% 30.39 in 2.5 mi Calm Calm - N/A   Overcast
2:47 PM 33.8 °F - 28.4 °F 81% 30.38 in 2.5 mi Calm Calm - N/A   Overcast
2:53 PM 33.1 °F - 30.0 °F 89% 30.38 in 2.5 mi Calm Calm - N/A   Overcast
3:16 PM 34.0 °F - 30.0 °F 85% 30.37 in 2.5 mi Calm Calm - N/A   Overcast
3:31 PM 34.0 °F - 30.0 °F 85% 30.37 in 3.0 mi Calm Calm - N/A   Overcast
3:53 PM 34.0 °F - 30.0 °F 85% 30.37 in 3.0 mi Calm Calm - N/A   Overcast
4:53 PM 34.0 °F - 30.9 °F 89% 30.36 in 4.0 mi Calm Calm - N/A   Overcast
5:00 PM 34.0 °F - 30.9 °F 89% 30.36 in 4.0 mi Calm Calm - N/A   Overcast
5:40 PM 35.1 °F 32.2 °F 32.0 °F 89% 30.36 in 4.0 mi South 3.5 mph - N/A   Overcast
5:53 PM 35.1 °F - 32.0 °F 89% 30.36 in 4.0 mi Calm Calm - N/A   Overcast
6:11 PM 34.0 °F - 32.0 °F 92% 30.36 in 4.0 mi Calm Calm - N/A   Overcast
6:53 PM 34.0 °F - 32.0 °F 92% 30.36 in 4.0 mi Calm Calm - N/A   Overcast
7:51 PM 33.8 °F - 32.0 °F 93% 30.34 in 2.5 mi Calm Calm - N/A   Overcast
7:53 PM 34.0 °F - 32.0 °F 92% 30.34 in 2.5 mi Calm Calm - N/A   Overcast
8:05 PM 34.0 °F - 32.0 °F 92% 30.34 in 1.5 mi Calm Calm - N/A   Overcast
8:53 PM 34.0 °F - 33.1 °F 96% 30.32 in 1.0 mi Calm Calm - N/A   Overcast
9:08 PM 35.1 °F - 33.1 °F 92% 30.31 in 0.8 mi Calm Calm - N/A   Overcast
9:53 PM 35.1 °F - 34.0 °F 96% 30.31 in 0.5 mi Calm Calm - N/A Fog Fog
10:53 PM 35.1 °F - 33.1 °F 92% 30.29 in 0.2 mi Calm Calm - 0.00 in Fog Fog
11:39 PM 34.0 °F - 33.1 °F 96% 30.27 in 0.2 mi Calm Calm - 0.01 in Fog , Rain Light Rain
11:53 PM 34.0 °F - 33.1 °F 96% 30.26 in 0.2 mi Calm Calm - 0.01 in Fog , Rain Light Rain